Temp
71 75 80 76 63 62 59 60 66 63 64 68 68 69 70 66 66 62 66 68 69 69 70 70 68 68 69 69 69 69 70 70 71 71 71 71 72 72 74 75 76 76 78 79 79 79 78 77 76
74 73 77 73 60 56 62 64 61 67 67 67 66 66 66 64 62 61 63 66 68 68 69 69 66 67 67 67 68 68 68 69 69 70 70 71 71 71 72 73 74 75 77 78 79 78 77 76 76
71 73 71 66 61 58 61 62 66 64 66 66 64 63 65 63 62 65 66 67 67 67 68 66 64 65 66 66 66 66 67 67 68 68 69 69 69 70 70 71 71 73 75 76 78 78 77 76 76
74 74 69 59 58 61 62 65 65 63 64 66 66 64 61 62 64 66 66 67 67 65 65 63 62 63 64 64 64 65 65 65 66 66 66 67 67 68 69 68 69 71 73 74 76 77 76 75 75
74 70 60 56 58 60 63 64 65 64 65 66 65 64 62 61 63 65 65 65 64 62 63 62 59 60 61 62 62 62 63 63 63 64 64 64 65 66 66 67 68 68 70 72 73 74 75 74 75
66 66 56 56 60 59 62 65 64 65 66 63 62 62 63 62 62 64 65 64 64 62 60 59 56 56 57 59 59 59 60 61 61 61 61 61 62 62 63 64 65 67 68 69 71 72 72 73 73
62 60 57 57 57 57 61 63 62 65 64 64 64 62 61 58 64 63 63 63 62 61 60 59 58 56 54 55 55 56 57 58 58 58 58 58 58 59 60 60 62 64 66 68 69 70 71 71 72
66 63 53 56 58 57 58 59 59 63 63 62 65 63 64 63 62 62 62 61 61 59 59 58 58 57 58 58 52 52 53 54 55 55 55 54 57 58 59 59 60 61 63 65 66 68 69 70 70
61 56 54 55 53 59 57 57 59 60 60 60 63 62 60 63 60 58 58 58 59 58 58 58 57 57 56 58 56 54 53 52 53 54 54 56 59 60 60 57 56 59 60 62 64 66 68 67 66
59 54 56 58 59 57 57 57 59 57 58 58 60 58 57 58 57 56 56 57 57 57 56 57 56 55 56 58 56 56 56 57 56 55 55 55 57 58 56 56 55 57 57 60 63 64 64 64 74
55 54 55 57 58 57 56 54 59 57 57 62 62 63 56 57 57 57 58 60 59 59 57 55 55 54 54 54 55 56 56 56 56 56 55 55 56 57 58 59 60 60 59 65 66 67 68 69 70
51 55 54 55 54 53 53 56 55 57 65 62 65 63 58 56 57 58 59 58 56 56 56 52 51 53 52 54 54 54 54 54 55 54 54 54 55 55 56 56 58 58 60 60 63 64 65 66 68
50 53 52 55 52 53 53 53 54 55 64 63 59 56 58 59 59 59 60 58 56 54 54 52 51 52 52 51 52 52 52 52 52 54 53 53 53 54 55 56 57 57 59 60 60 62 63 64 66
51 51 52 54 54 53 49 53 50 60 59 60 59 58 58 58 59 58 55 55 54 53 52 51 49 49 50 50 49 50 51 51 51 52 52 51 52 53 54 55 55 56 58 59 59 60 61 62 64
49 46 52 53 50 50 49 47 47 60 56 56 56 58 58 57 57 56 57 55 54 53 50 48 48 47 48 48 49 49 50 49 49 50 51 50 50 52 53 54 54 56 56 55 57 59 60 61 64
46 46 46 47 47 47 48 49 58 54 54 55 58 59 56 56 55 55 56 55 53 51 49 47 47 46 46 47 47 49 49 49 49 49 50 49 49 50 51 52 53 55 54 55 56 57 58 60 62
45 44 43 47 47 46 45 48 55 52 51 55 57 58 56 56 54 53 53 53 51 50 47 45 44 44 44 45 46 47 47 48 49 49 49 49 48 49 50 50 52 53 53 53 53 56 56 57 60
42 41 43 42 46 44 44 44 52 57 56 54 57 58 57 54 55 53 49 48 48 47 45 44 44 43 43 44 45 47 47 47 48 47 47 47 48 48 49 50 51 52 50 48 48 49 55 56 57
42 40 40 46 48 41 45 45 49 53 55 53 54 53 53 51 47 47 46 45 44 44 43 42 41 42 42 42 42 43 42 44 45 45 45 45 46 47 48 47 47 50 51 50 49 48 47 52 58
41 38 39 45 42 40 43 41 47 51 51 49 47 47 45 43 41 41 42 42 43 42 40 41 41 41 41 41 41 40 41 42 43 44 44 45 45 46 46 46 45 47 48 49 49 48 47 50 56
40 37 39 37 41 40 38 42 43 46 44 44 44 44 43 42 41 39 39 40 39 40 40 39 40 39 39 39 39 40 41 42 42 43 43 43 44 44 44 42 42 44 48 47 47 50 48 46 52
32 38 37 35 34 33 37 30 46 48 45 44 44 44 43 42 40 39 40 38 39 39 39 37 38 37 38 38 37 36 36 36 39 39 41 41 42 42 42 41 41 42 44 45 46 50 49 47 47
34 38 36 34 31 28 33 29 44 42 42 43 44 42 42 39 37 37 36 36 38 37 37 37 36 36 37 36 35 35 34 37 38 38 38 40 41 40 40 41 40 40 41 42 43 44 44 46 46
38 35 35 31 30 24 26 30 41 40 37 42 44 42 38 38 38 37 36 35 36 36 36 36 35 34 35 34 34 33 32 33 33 35 35 36 37 37 38 39 39 38 39 39 40 41 42 43 44
34 33 28 25 24 26 26 27 39 39 38 37 38 40 36 36 37 38 37 36 35 35 34 34 33 31 32 32 32 31 31 32 31 32 32 33 33 33 35 37 37 37 39 39 38 38 39 40 41
31 30 27 21 24 26 27 25 36 37 34 31 32 30 36 38 38 36 34 33 33 32 32 31 31 30 30 30 30 31 30 32 32 32 32 32 31 31 32 33 34 37 38 37 36 35 36 37 37
29 27 30 24 18 20 31 34 38 39 35 34 34 36 38 37 35 32 32 31 30 30 29 29 28 29 28 28 29 29 30 30 30 30 30 31 31 31 31 31 31 32 32 32 32 33 33 33 34
31 33 24 26 19 19 29 27 35 34 34 37 35 37 36 36 34 32 30 29 29 28 27 28 27 24 24 26 28 29 29 29 29 28 28 28 29 30 30 31 31 31 31 31 32 32 33 33 34
26 27 27 26 23 22 21 31 33 33 32 31 33 34 33 32 31 29 28 28 24 22 21 22 22 21 22 24 26 27 28 28 28 28 28 28 29 30 30 30 30 29 30 31 30 31 32 33 34
30 29 29 24 20 21 20 28 30 29 27 26 30 33 33 32 29 28 26 23 21 20 20 20 20 20 22 23 25 26 27 27 27 28 28 30 30 31 30 29 29 29 30 29 28 29 31 31 32
MSLP
1015.79 1015.54 1015.15 1014.50 1013.78 1012.40 1010.80 1010.67 1011.05 1011.18 1011.45 1011.86 1012.25 1012.20 1012.18 1013.14 1013.58 1015.69 1017.52 1017.91 1018.16 1018.35 1018.40 1018.38 1018.35 1018.18 1017.97 1017.68 1017.60 1017.40 1017.27 1017.08 1016.73 1016.41 1016.08 1015.79 1015.42 1015.18 1014.88 1014.41 1014.28 1014.10 1014.03 1014.16 1014.33 1014.42 1014.62 1014.66 1014.80
1015.70 1015.36 1014.66 1013.92 1012.83 1011.14 1010.09 1010.65 1010.87 1011.10 1011.95 1012.64 1013.00 1013.19 1013.28 1014.06 1015.34 1016.54 1017.48 1018.27 1018.33 1018.58 1018.65 1018.64 1018.69 1018.43 1018.19 1017.96 1017.79 1017.59 1017.42 1017.36 1017.10 1016.71 1016.24 1015.94 1015.80 1015.42 1015.17 1014.87 1014.50 1014.32 1014.20 1014.17 1014.30 1014.34 1014.44 1014.40 1014.61
1015.75 1015.38 1013.90 1013.17 1012.10 1010.62 1010.10 1010.90 1011.06 1012.06 1012.64 1012.81 1013.39 1014.23 1014.21 1014.82 1016.19 1016.64 1017.63 1018.26 1018.54 1018.80 1018.93 1019.13 1018.94 1018.69 1018.55 1018.23 1018.00 1017.81 1017.63 1017.42 1017.25 1016.95 1016.60 1016.42 1016.03 1015.80 1015.54 1015.34 1014.98 1014.71 1014.44 1014.23 1014.16 1014.19 1014.32 1014.32 1014.45
1015.44 1014.88 1014.76 1013.23 1011.40 1011.23 1011.15 1011.29 1011.73 1012.37 1013.14 1013.36 1013.47 1013.92 1015.40 1016.39 1016.52 1017.16 1018.05 1018.35 1018.58 1019.02 1019.24 1019.37 1019.18 1018.93 1018.83 1018.61 1018.39 1018.19 1018.08 1017.89 1017.67 1017.43 1017.13 1016.84 1016.42 1016.19 1015.93 1015.71 1015.32 1014.90 1014.72 1014.39 1014.19 1014.10 1014.17 1014.21 1014.31
1015.49 1014.55 1013.37 1012.54 1011.63 1011.72 1011.90 1012.08 1012.27 1012.32 1012.59 1012.99 1013.77 1013.89 1015.14 1016.55 1017.34 1017.67 1018.12 1018.47 1018.69 1019.24 1019.48 1019.56 1019.54 1019.24 1019.09 1018.88 1018.81 1018.71 1018.38 1018.23 1018.08 1017.80 1017.56 1017.32 1017.00 1016.61 1016.32 1015.95 1015.60 1015.34 1015.06 1014.65 1014.30 1014.12 1014.08 1014.10 1014.12
1014.98 1014.67 1013.15 1011.77 1011.28 1012.02 1012.26 1012.53 1012.76 1012.61 1012.88 1013.48 1013.92 1014.30 1015.17 1016.64 1017.33 1017.82 1018.25 1018.60 1018.90 1019.19 1019.48 1019.60 1019.66 1019.55 1019.43 1019.16 1019.10 1018.87 1018.72 1018.60 1018.38 1018.11 1017.87 1017.64 1017.48 1017.20 1016.72 1016.38 1016.03 1015.58 1015.27 1014.87 1014.50 1014.25 1014.05 1013.92 1013.90
1014.70 1014.29 1012.86 1012.44 1012.04 1012.25 1012.34 1013.02 1012.93 1012.72 1013.08 1013.46 1014.02 1014.15 1015.59 1016.72 1017.25 1018.05 1018.43 1018.78 1019.12 1019.40 1019.55 1019.65 1019.72 1019.94 1019.91 1019.77 1019.57 1019.26 1019.03 1018.81 1018.58 1018.49 1018.23 1017.89 1017.60 1017.36 1017.04 1016.73 1016.31 1016.02 1015.52 1015.10 1014.72 1014.35 1014.05 1013.93 1013.73
1015.21 1014.47 1013.61 1012.89 1012.25 1012.28 1013.25 1013.62 1013.86 1013.55 1013.35 1014.36 1014.41 1014.01 1014.81 1015.84 1017.45 1018.27 1018.67 1018.89 1019.18 1019.52 1019.62 1019.78 1019.92 1019.99 1019.86 1019.75 1019.93 1019.82 1019.51 1019.18 1018.88 1018.62 1018.45 1018.20 1017.66 1017.23 1016.95 1016.68 1016.36 1015.97 1015.59 1015.23 1014.78 1014.36 1014.03 1013.69 1013.63
1016.10 1014.70 1013.17 1013.11 1013.12 1012.84 1013.93 1013.99 1014.29 1014.57 1014.25 1014.46 1014.54 1014.83 1015.77 1016.30 1017.56 1018.16 1018.54 1018.86 1019.15 1019.53 1019.85 1020.10 1020.18 1020.18 1020.15 1019.86 1019.92 1019.86 1019.67 1019.37 1019.00 1018.57 1018.32 1018.00 1017.65 1017.28 1016.93 1016.74 1016.59 1016.14 1015.64 1015.20 1014.82 1014.40 1013.97 1013.62 1013.38
1015.73 1014.60 1013.48 1013.75 1013.72 1013.71 1014.21 1014.41 1014.25 1014.39 1014.17 1014.19 1014.55 1015.51 1016.40 1016.88 1017.33 1017.55 1017.83 1018.14 1018.71 1019.12 1019.75 1020.10 1020.21 1020.24 1020.14 1019.84 1019.85 1019.73 1019.51 1019.25 1019.04 1018.90 1018.64 1018.16 1017.63 1017.29 1017.21 1016.75 1016.47 1016.06 1015.75 1015.12 1014.67 1014.33 1014.00 1013.49 1012.77
1016.00 1014.71 1014.62 1014.40 1014.65 1014.81 1014.72 1014.73 1014.55 1014.11 1013.32 1012.97 1013.18 1014.21 1015.84 1016.52 1016.95 1017.11 1017.31 1017.54 1018.14 1018.75 1019.54 1020.03 1020.21 1020.25 1020.16 1020.03 1019.87 1019.66 1019.57 1019.37 1019.18 1019.01 1018.90 1018.53 1017.99 1017.45 1017.03 1016.53 1016.06 1015.79 1015.31 1014.73 1014.44 1014.06 1013.66 1013.37 1012.92
1016.20 1015.33 1015.46 1015.22 1015.41 1015.45 1015.18 1015.02 1014.57 1014.09 1012.29 1013.18 1013.40 1014.06 1015.09 1015.73 1016.05 1016.34 1016.69 1017.32 1018.09 1018.71 1019.27 1019.92 1020.20 1020.23 1020.33 1020.24 1020.09 1019.99 1019.71 1019.56 1019.18 1019.10 1018.94 1018.57 1017.96 1017.55 1017.19 1016.89 1016.49 1016.02 1015.54 1015.14 1014.59 1014.14 1013.81 1013.39 1012.93
1016.17 1015.64 1015.75 1015.65 1015.82 1015.64 1015.60 1015.08 1014.84 1013.58 1012.87 1013.52 1014.03 1014.55 1014.74 1015.09 1015.51 1015.98 1016.37 1017.10 1017.85 1018.43 1019.16 1019.85 1020.14 1020.16 1020.27 1020.21 1020.21 1020.12 1019.98 1019.74 1019.51 1019.04 1018.84 1018.69 1018.16 1017.65 1017.23 1016.82 1016.46 1016.06 1015.60 1015.06 1014.58 1014.19 1013.75 1013.31 1012.80
1016.45 1016.14 1015.73 1015.49 1015.48 1015.55 1015.35 1014.92 1015.13 1012.62 1012.97 1013.02 1013.52 1013.87 1014.35 1014.71 1015.13 1015.79 1016.41 1016.86 1017.64 1018.37 1019.05 1019.73 1020.12 1020.28 1020.37 1020.35 1020.45 1020.32 1020.07 1019.87 1019.48 1019.10 1018.79 1018.69 1018.37 1017.79 1017.25 1016.71 1016.41 1016.07 1015.63 1015.21 1014.78 1014.27 1013.74 1013.19 1012.70
1016.83 1016.20 1015.32 1014.97 1015.44 1015.52 1015.55 1014.73 1013.41 1012.47 1013.04 1012.92 1013.09 1013.39 1013.89 1014.46 1015.09 1015.49 1016.10 1016.73 1017.51 1018.24 1019.10 1019.70 1020.04 1020.37 1020.38 1020.34 1020.30 1020.13 1019.94 1019.80 1019.38 1019.06 1018.83 1018.59 1018.34 1017.84 1017.34 1016.76 1016.32 1015.95 1015.67 1015.32 1014.68 1014.12 1013.55 1012.93 1012.37
1016.64 1016.27 1015.16 1015.10 1015.55 1015.88 1015.76 1012.85 1012.32 1012.69 1012.71 1012.55 1012.56 1012.80 1013.53 1014.15 1014.98 1015.67 1016.33 1016.93 1017.63 1018.37 1019.05 1019.66 1020.00 1020.24 1020.32 1020.35 1020.29 1020.03 1019.75 1019.46 1019.13 1018.90 1018.60 1018.31 1018.07 1017.74 1017.25 1016.68 1016.16 1015.77 1015.60 1015.09 1014.61 1014.04 1013.35 1012.70 1012.05
1016.28 1015.13 1015.15 1014.89 1015.52 1015.74 1015.51 1013.08 1012.24 1012.82 1012.79 1012.32 1012.36 1012.73 1013.27 1013.95 1014.92 1015.67 1016.46 1017.19 1017.85 1018.51 1019.19 1019.60 1019.98 1020.20 1020.39 1020.40 1020.23 1019.91 1019.59 1019.25 1018.87 1018.69 1018.42 1018.13 1017.84 1017.52 1017.10 1016.49 1015.99 1015.68 1015.28 1014.93 1014.54 1013.86 1013.39 1012.58 1011.80
1015.71 1015.67 1015.36 1015.42 1015.70 1015.68 1014.96 1013.38 1012.63 1011.89 1012.09 1011.84 1011.89 1012.41 1013.20 1013.89 1014.67 1015.76 1016.82 1017.59 1018.34 1018.92 1019.41 1019.84 1020.15 1020.37 1020.44 1020.26 1019.99 1019.55 1019.14 1018.79 1018.73 1018.54 1018.33 1018.10 1017.66 1017.33 1016.85 1016.22 1015.77 1015.34 1015.06 1014.76 1014.50 1014.14 1013.31 1012.54 1011.83
1016.80 1016.51 1015.84 1015.55 1015.69 1015.84 1014.36 1013.13 1012.35 1011.39 1011.55 1011.50 1011.89 1012.53 1013.37 1014.32 1015.72 1016.41 1017.29 1018.11 1018.72 1019.14 1019.46 1019.85 1020.13 1020.27 1020.36 1020.20 1019.86 1019.27 1018.98 1018.73 1018.49 1018.28 1018.18 1017.88 1017.38 1017.00 1016.52 1016.19 1015.83 1015.17 1014.57 1014.21 1014.05 1013.70 1013.35 1012.44 1011.66
1017.21 1016.91 1016.14 1015.65 1016.16 1016.11 1014.38 1012.86 1011.75 1010.90 1011.05 1011.94 1012.45 1013.11 1014.11 1015.24 1016.35 1017.24 1017.91 1018.44 1018.84 1019.21 1019.59 1019.84 1020.01 1020.23 1020.41 1020.35 1020.16 1020.03 1019.61 1019.01 1018.60 1018.18 1017.85 1017.55 1017.27 1016.67 1016.35 1016.08 1015.78 1015.14 1014.51 1013.98 1013.64 1013.36 1012.85 1012.23 1011.43
1017.61 1017.30 1016.86 1016.79 1016.50 1016.16 1015.25 1012.38 1011.23 1011.19 1011.92 1012.67 1013.26 1014.09 1014.88 1015.76 1016.66 1017.55 1018.30 1018.82 1019.23 1019.35 1019.64 1019.95 1020.19 1020.38 1020.40 1020.44 1020.29 1019.88 1019.30 1018.52 1017.99 1017.61 1017.45 1017.30 1017.21 1016.66 1016.34 1016.13 1015.70 1015.10 1014.35 1013.79 1013.38 1012.89 1012.34 1011.74 1011.12
1018.30 1018.16 1018.05 1017.75 1017.40 1016.35 1016.18 1013.14 1011.01 1010.91 1011.77 1012.75 1013.64 1014.42 1015.30 1016.19 1017.19 1017.79 1018.44 1019.00 1019.25 1019.57 1020.00 1020.29 1020.45 1020.49 1020.41 1020.46 1020.15 1019.71 1019.24 1018.59 1018.12 1017.94 1017.44 1017.15 1016.88 1016.45 1016.19 1015.81 1015.38 1014.71 1014.35 1013.89 1013.31 1012.61 1012.08 1011.58 1010.59
1018.90 1018.92 1018.63 1018.42 1018.04 1017.73 1016.16 1015.17 1011.00 1011.70 1012.27 1013.41 1014.28 1015.12 1015.89 1016.68 1017.48 1018.13 1018.72 1019.21 1019.54 1019.88 1020.10 1020.29 1020.39 1020.36 1020.34 1020.30 1020.12 1019.76 1019.32 1018.78 1018.30 1017.91 1017.39 1016.94 1016.51 1016.34 1016.08 1015.45 1015.07 1014.58 1014.19 1013.80 1013.40 1012.82 1012.12 1011.50 1010.80
1019.69 1019.36 1018.95 1018.91 1018.38 1017.66 1016.48 1015.61 1012.01 1012.58 1013.67 1014.28 1015.13 1015.83 1016.56 1017.11 1017.69 1018.25 1018.86 1019.39 1019.63 1020.02 1020.10 1020.17 1020.22 1020.16 1020.12 1020.08 1020.00 1019.74 1019.28 1018.76 1018.26 1017.76 1017.31 1016.81 1016.51 1016.21 1015.92 1015.54 1015.06 1014.59 1014.06 1013.65 1013.23 1012.75 1012.14 1011.41 1010.82
1020.19 1019.71 1018.72 1018.47 1018.20 1017.11 1016.98 1016.25 1013.21 1013.92 1014.79 1015.54 1016.10 1016.43 1017.09 1017.42 1017.66 1018.09 1018.56 1019.10 1019.56 1019.79 1020.06 1020.22 1020.18 1020.08 1020.12 1020.00 1019.77 1019.43 1019.11 1018.74 1018.32 1017.92 1017.40 1016.93 1016.46 1016.15 1015.70 1015.39 1014.90 1014.34 1013.72 1013.42 1013.16 1012.64 1012.10 1011.39 1010.73
1020.75 1020.52 1019.72 1018.81 1018.29 1017.33 1017.19 1015.44 1014.24 1014.74 1015.63 1016.26 1016.85 1017.17 1017.10 1017.18 1017.71 1018.21 1018.73 1019.27 1019.67 1019.92 1020.03 1020.07 1020.11 1020.05 1019.97 1019.85 1019.51 1019.21 1018.93 1018.41 1018.06 1017.80 1017.46 1016.97 1016.44 1016.19 1015.92 1015.31 1014.73 1014.14 1013.63 1013.22 1012.87 1012.49 1011.86 1011.30 1010.72
1021.58 1021.12 1021.05 1020.16 1019.89 1018.40 1015.70 1014.86 1014.62 1015.14 1015.89 1016.46 1016.89 1016.91 1016.96 1017.29 1017.89 1018.45 1019.12 1019.60 1019.84 1020.08 1020.18 1020.40 1020.30 1020.09 1019.89 1019.67 1019.31 1018.87 1018.51 1018.25 1017.89 1017.73 1017.28 1016.77 1016.34 1015.99 1015.59 1015.03 1014.56 1014.14 1013.62 1013.11 1012.68 1012.10 1011.46 1011.04 1010.53
1022.05 1021.86 1021.43 1020.70 1019.50 1017.89 1015.92 1015.34 1014.78 1015.79 1016.49 1017.01 1016.92 1017.12 1017.17 1017.47 1018.01 1018.75 1019.30 1019.73 1020.12 1020.46 1020.66 1020.60 1020.37 1020.23 1020.10 1019.70 1019.21 1018.72 1018.35 1018.05 1017.79 1017.44 1016.97 1016.56 1016.03 1015.55 1015.06 1014.55 1014.16 1013.70 1013.17 1012.63 1012.19 1011.62 1011.13 1010.69 1010.15
1022.46 1021.95 1021.59 1021.07 1020.35 1018.96 1017.31 1015.52 1015.52 1016.38 1017.33 1017.66 1017.41 1017.26 1017.42 1017.87 1018.44 1019.02 1019.54 1020.06 1020.61 1020.89 1020.88 1020.57 1020.39 1020.27 1020.00 1019.67 1019.17 1018.69 1018.27 1017.86 1017.47 1016.87 1016.31 1015.85 1015.52 1015.14 1014.65 1014.25 1013.78 1013.32 1012.75 1012.27 1011.84 1011.38 1010.93 1010.46 1009.96
1022.01 1021.63 1021.30 1020.92 1020.73 1020.26 1019.38 1016.74 1016.51 1017.35 1018.05 1018.27 1017.62 1017.51 1017.69 1018.07 1018.60 1019.12 1019.64 1020.24 1020.63 1020.73 1020.60 1020.50 1020.32 1020.17 1019.86 1019.56 1019.06 1018.50 1018.05 1017.64 1017.10 1016.45 1016.04 1015.54 1015.28 1014.88 1014.44 1014.03 1013.62 1013.14 1012.69 1012.27 1011.68 1010.98 1010.48 1010.15 1009.82
Wind_Speed
4 1 1 4 6 5 6 6 1 5 4 2 2 3 3 7 1 2 7 7 8 7 7 10 14 15 16 16 17 17 17 17 17 17 18 18 17 18 18 12 11 9 12 14 14 15 14 14 13
3 2 3 1 6 8 7 3 8 6 2 6 5 3 4 3 3 8 10 6 6 7 7 10 13 14 15 16 17 17 17 16 16 16 18 18 17 17 17 17 15 12 7 12 14 15 14 14 12
1 3 4 4 5 10 5 5 3 3 7 3 3 1 0 4 4 11 7 10 7 7 7 10 12 14 14 15 16 16 17 16 16 16 16 16 17 17 16 16 15 15 11 9 12 14 14 15 14
2 4 3 7 13 7 5 3 4 7 5 4 2 4 3 3 6 6 11 9 7 7 7 11 13 13 14 14 15 16 15 15 15 15 14 15 16 16 16 15 15 13 13 10 10 12 12 14 15
0 2 5 6 11 5 6 4 6 10 5 7 6 3 2 5 5 11 11 7 6 6 6 8 12 13 13 13 15 15 15 15 15 14 14 14 15 15 16 16 14 14 14 13 11 11 11 12 13
4 3 6 12 14 5 5 6 7 9 6 5 5 3 3 5 11 10 9 8 6 6 5 6 9 13 13 13 14 15 14 14 14 14 14 14 14 13 15 16 14 15 14 14 13 12 10 9 11
3 3 7 11 10 6 3 5 10 10 9 8 1 4 4 9 10 11 8 7 6 5 5 5 6 7 8 9 12 13 13 14 14 12 13 14 13 12 12 14 14 15 15 15 14 13 12 10 9
2 3 4 6 8 7 2 5 2 8 9 3 2 5 3 8 14 10 8 7 5 5 4 5 5 6 6 5 8 10 12 14 14 14 14 13 10 12 12 10 13 16 16 16 16 15 14 12 10
1 6 8 7 5 1 3 6 3 2 4 4 5 3 4 9 15 11 9 8 6 5 3 2 3 4 5 4 5 6 7 9 12 13 15 11 7 9 11 12 13 15 15 16 16 15 14 12 11
6 5 5 3 2 3 2 5 3 5 7 8 8 5 5 13 14 14 14 12 11 8 5 2 2 5 5 4 6 6 7 7 7 8 11 9 10 9 10 10 13 13 13 14 13 15 15 11 8
3 6 1 2 6 4 4 5 4 5 12 12 13 12 12 14 14 14 14 12 11 8 6 4 2 4 6 6 5 4 4 5 6 9 9 9 8 7 7 6 7 8 9 7 9 9 7 9 8
6 5 5 3 1 2 4 3 5 11 10 3 7 5 14 15 16 16 14 12 9 9 6 4 4 4 5 4 5 6 6 7 6 8 10 8 6 7 7 6 8 7 6 9 8 7 9 10 11
7 4 3 5 6 7 6 11 10 16 15 10 3 7 11 13 14 13 11 9 9 8 6 5 3 3 4 5 5 5 5 6 8 7 8 8 8 8 8 8 7 8 8 8 8 9 9 10 11
1 7 9 9 10 8 7 7 4 13 5 14 14 13 11 12 13 11 12 11 10 7 6 5 3 3 4 5 6 5 5 6 6 7 7 9 8 8 8 8 8 8 8 8 9 9 10 10 11
3 8 9 10 4 6 2 9 17 17 6 6 7 9 11 11 9 13 11 11 9 8 6 5 3 3 5 6 6 5 5 7 7 7 8 8 8 9 10 8 8 8 8 11 9 10 10 10 11
4 3 6 4 3 2 4 10 3 4 7 11 12 11 9 10 10 9 8 9 8 7 7 4 2 4 6 6 6 6 6 7 7 6 7 9 9 9 9 8 9 8 8 8 8 9 9 10 10
4 9 6 5 1 1 7 8 2 1 4 8 8 8 8 8 8 8 7 7 8 7 6 4 3 5 6 7 7 8 9 7 6 6 6 8 9 9 9 8 9 10 8 8 8 9 10 10 11
5 8 6 7 1 4 10 19 20 22 16 19 16 14 12 10 9 4 6 6 7 6 5 3 1 4 6 6 7 7 6 6 6 7 7 10 8 10 9 8 9 8 8 7 7 10 10 11 11
7 9 15 14 6 7 17 19 19 22 17 18 16 12 11 8 3 2 7 7 7 5 4 0 3 4 5 5 7 6 7 8 7 6 10 10 8 10 9 7 9 10 10 9 9 8 11 11 11
8 11 14 10 2 5 12 21 24 22 15 9 5 2 3 4 3 5 6 5 5 3 1 2 4 5 5 5 6 6 7 7 8 8 8 9 10 9 9 9 9 10 9 11 11 10 8 10 11
7 8 9 8 8 5 11 12 6 2 0 2 2 4 5 3 4 5 5 3 3 3 2 4 6 7 6 7 6 6 7 7 7 6 7 7 10 11 10 11 10 10 10 9 11 12 11 9 11
5 3 5 6 5 6 4 10 9 4 2 2 2 4 4 5 5 4 5 5 3 3 2 4 5 7 6 6 6 8 7 8 8 9 8 9 10 10 10 11 11 9 8 10 10 10 11 9 10
2 2 3 2 4 5 5 6 4 0 6 7 7 6 4 4 2 4 3 2 2 2 4 5 6 7 6 6 7 7 8 8 8 8 11 11 10 10 11 11 9 9 7 10 11 12 11 9 8
0 4 5 1 2 5 1 5 3 4 2 5 4 4 4 3 1 3 2 3 3 4 5 5 6 6 6 6 7 8 10 10 9 10 10 8 7 8 10 11 10 9 9 10 9 11 12 11 9
1 4 3 3 3 3 1 4 7 2 1 2 4 5 4 4 4 5 5 5 3 4 5 5 6 7 6 7 7 7 9 10 11 10 9 10 8 8 10 11 11 9 10 11 10 10 11 10 8
1 3 4 6 3 3 3 7 2 1 2 3 5 7 6 5 5 5 3 3 4 4 5 6 6 7 7 7 8 7 8 6 7 9 9 8 8 9 12 12 13 13 13 11 10 8 8 9 8
4 4 3 4 1 3 3 4 1 2 2 2 3 6 10 8 6 4 2 3 4 4 5 6 7 7 7 8 7 8 7 7 8 9 9 8 9 8 10 10 11 11 11 10 9 8 9 8 8
2 4 3 3 4 4 3 4 3 3 1 3 6 12 10 8 7 5 3 4 3 4 5 6 6 7 8 8 7 7 8 7 7 7 9 10 10 10 10 10 10 10 10 9 8 8 9 9 7
4 4 4 3 2 3 4 1 2 3 1 6 12 11 10 8 6 5 4 4 3 4 4 4 5 6 6 6 7 8 7 7 6 6 7 8 8 9 9 9 10 9 10 9 9 9 9 9 8
2 3 5 4 5 0 2 6 3 1 3 7 13 11 9 7 6 5 5 4 4 4 4 4 4 5 5 6 7 7 7 7 6 6 7 8 8 8 9 9 9 9 9 8 7 8 6 6 7
Wind_Direction
328 1 219 222 222 245 232 214 289 204 212 142 89 239 209 6 258 5 127 111 107 85 58 54 34 34 36 38 36 36 31 29 27 25 24 19 14 13 8 1 347 328 218 217 217 219 212 207 199
340 197 193 176 253 230 231 192 213 206 82 128 121 148 195 125 101 125 148 134 105 82 62 46 40 35 33 35 31 30 29 25 24 21 17 17 16 9 6 7 8 351 290 236 226 230 224 214 204
166 308 217 229 241 239 260 195 216 152 149 166 155 297 12 105 124 144 114 135 118 86 63 50 41 38 31 31 28 26 22 21 19 17 17 9 8 11 7 2 4 0 349 298 251 241 236 228 209
208 173 146 246 237 254 252 146 173 161 184 224 204 198 153 43 144 145 141 138 119 89 64 51 38 35 31 29 24 22 20 19 15 14 11 7 3 2 4 1 354 355 347 337 302 270 252 246 224
56 218 227 247 256 265 246 262 199 199 183 183 186 171 160 158 135 143 146 144 120 89 65 54 38 33 27 28 23 20 17 14 11 9 7 3 358 355 356 358 352 351 343 339 335 306 281 271 250
170 295 235 244 245 243 249 225 204 224 201 154 204 190 129 129 160 156 152 139 122 102 67 44 40 31 24 25 19 16 13 12 8 4 3 360 355 351 349 351 348 345 340 332 327 319 322 301 274
238 223 270 275 274 270 226 178 214 208 205 203 3 225 94 176 169 157 150 138 123 102 83 57 37 27 27 23 16 9 6 5 4 4 0 354 347 347 347 343 342 341 336 331 323 316 306 309 303
191 236 250 238 266 278 117 188 306 226 205 84 204 225 179 172 163 158 157 153 146 121 89 57 40 19 8 7 23 2 359 357 356 357 357 351 336 343 345 336 339 333 332 330 325 317 305 288 292
244 237 248 251 207 275 151 216 160 338 246 215 200 260 81 148 157 166 172 181 179 172 140 71 37 21 6 3 18 352 357 353 350 351 351 344 342 335 332 332 326 323 324 325 321 316 311 304 276
224 238 243 266 236 256 217 234 201 220 209 226 218 197 147 160 176 185 192 197 198 193 177 156 31 19 3 8 7 1 355 355 354 351 346 341 333 334 323 307 319 315 315 311 312 312 308 276 267
186 252 299 258 263 273 264 246 220 229 239 226 220 201 180 181 192 203 208 211 200 186 176 158 82 29 17 12 357 0 352 349 344 346 344 332 327 326 325 322 322 323 315 306 308 307 305 307 293
244 252 254 297 326 239 246 298 247 232 249 48 217 165 178 194 200 206 210 205 195 190 167 128 66 46 39 4 5 351 346 343 339 339 337 332 326 321 318 314 316 308 313 310 303 299 297 293 292
235 264 245 259 262 249 262 252 268 259 258 252 215 191 199 207 212 214 215 208 200 195 168 146 96 49 29 13 359 344 337 331 329 323 327 330 320 314 311 308 308 308 305 299 300 297 294 291 286
319 277 274 270 256 239 242 261 224 250 302 247 232 229 224 222 217 211 210 205 201 188 175 144 106 67 17 4 345 328 320 319 313 312 316 315 310 305 304 302 301 299 304 304 300 296 291 286 284
307 297 289 246 251 238 227 245 236 256 237 250 233 239 234 227 223 222 213 211 196 186 163 154 126 53 7 349 339 323 315 309 303 302 299 297 299 299 299 295 294 295 301 298 291 289 283 278 276
268 248 277 97 173 95 234 268 250 340 241 249 246 244 230 226 231 231 218 206 187 170 173 138 65 13 356 342 327 313 309 305 297 294 295 297 293 291 291 290 288 297 295 293 291 290 286 278 273
214 277 251 295 201 220 226 288 311 208 219 261 242 235 233 237 229 219 207 192 174 166 158 129 38 357 342 326 317 311 306 301 299 297 293 292 293 293 291 285 285 291 291 295 296 290 284 283 278
290 273 255 270 61 240 263 264 277 280 270 265 266 262 250 248 245 217 175 156 154 150 132 118 29 331 328 320 312 302 304 301 301 299 292 302 294 293 290 285 281 281 280 280 277 290 291 281 280
294 276 277 276 274 286 272 282 282 279 272 267 273 261 260 264 3 217 148 149 148 149 155 114 312 332 329 322 319 322 317 311 301 301 299 294 291 293 285 289 284 279 274 274 284 283 285 281 273
249 272 277 282 192 255 289 287 278 276 284 279 300 146 121 120 102 126 141 150 166 157 143 288 309 324 325 318 319 300 301 292 296 293 290 296 297 295 295 296 290 283 281 278 279 277 277 273 269
254 252 282 287 315 253 299 267 277 145 215 150 148 96 90 95 148 151 163 173 185 230 266 305 323 323 319 314 298 288 283 280 286 291 298 296 293 296 294 289 280 283 278 279 279 277 267 274 268
272 3 290 286 308 293 339 295 277 308 328 145 126 131 93 95 105 147 182 199 222 236 279 310 310 306 302 303 296 298 298 297 298 296 293 292 289 289 288 282 288 286 285 279 280 280 281 284 276
311 315 280 266 270 309 185 247 262 235 96 90 77 72 68 71 109 169 192 239 244 295 301 304 304 305 305 309 308 304 292 290 292 289 293 296 296 295 289 286 288 288 289 284 286 282 279 276 277
303 277 234 142 242 247 21 268 303 34 73 106 81 73 46 28 246 224 221 226 250 267 284 298 301 305 319 318 302 293 292 294 294 300 301 301 306 300 295 290 287 293 288 285 293 292 281 277 276
292 282 284 238 199 290 144 242 300 337 201 273 341 339 328 315 316 289 267 263 264 280 296 310 319 318 313 303 297 292 288 292 292 297 298 299 299 298 296 296 290 284 284 288 290 286 283 280 276
85 303 290 288 292 333 155 239 161 132 234 263 274 272 294 325 326 323 312 291 285 298 320 320 313 297 301 302 299 292 284 282 291 288 293 294 296 296 296 298 295 295 293 289 284 279 279 285 275
127 207 25 281 91 265 256 253 249 50 69 43 296 324 343 343 335 333 289 268 297 319 318 302 296 302 311 309 303 297 290 292 291 296 294 293 296 295 292 294 292 289 286 284 281 274 274 269 270
282 128 197 194 268 264 250 261 193 177 149 310 329 333 337 341 341 325 306 289 299 312 298 293 308 309 308 301 300 298 301 296 298 297 295 296 289 288 293 292 289 290 290 290 287 284 279 271 271
162 208 213 304 239 283 309 29 212 130 53 332 318 333 333 324 319 305 283 273 298 277 277 300 306 304 302 309 306 304 308 309 303 289 293 288 291 291 292 294 290 289 291 296 292 285 283 275 278
267 246 204 243 167 143 332 275 57 91 272 289 313 318 319 313 303 282 276 279 276 279 290 295 296 294 305 301 305 312 315 314 313 313 312 310 314 317 313 307 307 306 311 302 290 298 295 294 292